Location: Unspecified
(0.0000°N, 0.0000°E)
Time: 01:55:22
(UTC+00:00)

TET - Visible Passes

Search period start: 24 April 2019 00:00
Search period end: 04 May 2019 00:00
Orbit: 418 x 419 km, 97.6° (Epoch: 23 April)

Date Brightness Start Highest point End Pass type
(mag) Time Alt. Az. Time Alt. Az. Time Alt. Az.
25 Apr 7.4 04:56:12 10° NE 04:59:00 28° ESE 05:01:48 10° SSE visible
27 Apr 7.2 04:59:18 10° NE 05:02:11 31° ESE 05:05:04 10° SSE visible
29 Apr 7.0 05:02:23 10° NE 05:05:20 35° E 05:08:18 10° S visible
01 May 6.7 05:05:28 10° NNE 05:08:28 39° E 05:11:30 10° S visible
03 May 6.5 05:08:31 10° NNE 05:11:35 44° E 05:14:40 10° S visible
